Date,TemperatureHighF,TemperatureAvgF,TemperatureLowF,DewpointHighF,DewpointAvgF,DewpointLowF,HumidityHigh,HumidityAvg,HumidityLow,PressureMaxIn,PressureMinIn,WindSpeedMaxMPH,WindSpeedAvgMPH,GustSpeedMaxMPH,PrecipitationSumIn
2012-1-1,60.3,51.0,39.6,34.0,30.3,27.0,68,47,30,30.63,30.20,15,6,24,0.00
2012-1-2,56.7,43.5,32.1,30.0,26.2,23.0,77,54,28,30.78,30.62,10,3,15,0.00
2012-1-3,62.0,44.5,25.5,34.0,26.2,23.0,91,55,25,30.64,30.27,15,4,21,0.00
2012-1-4,63.1,48.3,34.2,38.0,33.7,28.0,91,61,29,30.35,30.21,5,2,10,0.00
2012-1-5,68.3,49.4,32.0,49.0,39.1,30.0,92,71,39,30.37,30.11,7,2,10,0.00
2012-1-6,74.1,58.6,45.5,54.0,48.8,44.0,96,74,35,30.10,29.87,18,4,24,0.00
2012-1-7,64.5,52.2,42.1,49.0,40.5,36.0,94,67,40,30.08,29.91,10,3,15,0.00
2012-1-8,60.5,51.7,41.1,49.0,44.4,38.0,92,77,62,30.10,30.01,12,3,16,0.00
2012-1-9,52.1,46.3,40.3,49.0,44.6,39.0,96,93,89,30.13,30.00,13,6,18,0.30
2012-1-10,52.3,45.1,39.3,42.0,38.9,36.0,95,80,55,30.09,29.89,27,7,31,0.01
2012-1-11,74.0,54.6,35.3,43.0,37.3,33.0,92,58,27,30.00,29.65,23,6,29,0.00
2012-1-12,46.8,38.5,29.1,35.0,17.5,7.0,68,46,21,30.33,30.00,17,7,31,0.00
2012-1-13,56.5,40.3,27.1,29.0,23.3,18.0,78,55,24,30.38,30.26,7,2,14,0.00
2012-1-14,67.0,47.5,28.9,30.0,25.2,19.0,78,47,16,30.41,30.29,9,2,12,0.00
2012-1-15,65.5,50.0,30.1,57.0,41.5,26.0,86,74,56,30.33,30.15,16,5,23,0.00
2012-1-16,71.2,64.7,58.9,62.0,59.7,57.0,96,84,71,30.15,29.91,21,6,24,0.00
2012-1-17,64.2,54.5,38.1,63.0,43.6,26.0,97,70,41,30.33,29.91,12,5,20,0.00
2012-1-18,63.1,45.0,29.4,37.0,29.2,24.0,80,57,30,30.35,30.02,8,3,12,0.00
2012-1-19,79.2,57.7,36.4,47.0,41.2,34.0,93,60,23,30.02,29.82,12,2,22,0.00
2012-1-20,84.2,61.3,39.5,60.0,51.6,38.0,95,74,33,29.84,29.70,11,3,19,0.00
2012-1-21,58.6,48.1,37.3,55.0,37.3,31.0,95,67,47,30.10,29.81,11,4,21,0.00
2012-1-22,81.9,59.3,40.9,61.0,36.2,19.0,94,54,11,29.97,29.69,17,4,26,0.00
2012-1-23,65.6,51.9,38.6,39.0,36.0,33.0,85,57,33,30.15,29.96,8,3,13,0.00
2012-1-24,56.7,50.6,39.0,56.0,46.5,35.0,97,86,67,30.03,29.83,8,2,15,0.50
2012-1-25,59.8,53.8,51.0,59.0,52.0,48.0,97,93,87,29.91,29.73,16,6,32,1.03
2012-1-26,67.0,57.1,42.0,45.0,39.2,34.0,88,55,32,30.11,29.97,19,7,30,0.05
2012-1-27,72.1,53.2,33.4,46.0,40.9,32.0,96,67,36,30.16,29.91,20,6,25,0.00
2012-1-28,56.7,47.2,35.2,40.0,29.4,25.0,79,52,32,30.47,30.17,14,5,23,0.00
2012-1-29,62.7,46.2,30.2,37.0,32.0,28.0,92,62,31,30.52,30.32,8,2,13,0.00
2012-1-30,65.2,53.8,40.7,57.0,47.1,35.0,91,78,64,30.34,30.11,18,5,23,0.00
2012-1-31,76.7,64.9,55.9,59.0,57.8,55.0,96,79,52,30.14,29.97,12,5,18,0.00
2012-2-1,79.8,64.6,52.4,62.0,53.2,46.0,97,71,31,30.11,30.00,9,3,18,0.00
2012-2-2,70.3,59.0,45.5,65.0,55.7,44.0,96,89,72,30.11,29.92,14,4,19,0.00
2012-2-3,74.8,68.2,62.7,66.0,63.3,51.0,96,85,65,29.99,29.87,16,5,21,0.07
2012-2-4,61.0,52.5,45.9,50.0,39.8,35.0,71,63,52,30.32,30.00,16,9,24,0.00
2012-2-5,51.5,44.6,38.6,37.0,34.5,33.0,82,68,55,30.42,30.31,18,6,24,0.00
2012-2-6,52.9,45.6,36.4,41.0,36.8,33.0,88,72,55,30.38,30.19,6,2,10,0.00
2012-2-7,62.6,51.7,38.8,44.0,40.7,37.0,93,68,48,30.38,30.18,11,2,17,0.00
2012-2-8,49.6,43.1,36.5,40.0,37.3,34.0,92,80,68,30.52,30.36,7,4,16,0.00
2012-2-9,59.4,45.7,31.8,45.0,38.3,31.0,95,77,53,30.37,30.12,11,3,16,0.00
2012-2-10,63.5,52.7,41.8,48.0,40.3,31.0,94,67,34,30.36,30.07,18,6,22,0.03
2012-2-11,46.5,38.4,30.5,34.0,23.0,16.0,84,56,34,30.61,30.36,14,6,19,0.00
2012-2-12,38.8,32.5,25.6,32.0,22.7,16.0,90,69,42,30.63,30.21,9,3,13,0.02
2012-2-13,63.8,46.3,36.0,53.0,42.1,31.0,96,86,62,30.20,29.85,11,3,14,0.48
2012-2-14,76.0,56.9,37.2,60.0,48.0,36.0,96,76,37,29.96,29.80,15,4,21,0.00
2012-2-15,75.1,63.7,51.3,64.0,52.4,38.0,97,72,29,30.05,29.84,14,3,21,0.01
2012-2-16,60.2,51.4,44.3,48.0,42.9,36.0,84,73,58,30.28,30.06,10,4,14,0.00
2012-2-17,62.2,53.4,47.8,53.0,50.3,45.0,96,89,72,30.16,29.91,8,4,17,1.12
2012-2-19,61.1,52.0,44.2,47.0,44.8,42.0,94,78,56,30.17,30.01,9,4,15,0.00
2012-2-20,71.4,56.8,44.2,56.0,49.5,40.0,95,78,53,30.13,29.94,19,5,21,0.00
2012-2-21,74.7,57.2,37.8,56.0,47.7,36.0,94,73,50,30.18,29.94,10,3,19,0.00
2012-2-22,83.8,67.6,56.6,59.0,47.5,31.0,94,57,15,29.94,29.63,14,5,24,0.00
2012-2-23,86.2,68.6,56.0,45.0,40.1,31.0,64,39,15,29.82,29.51,23,6,29,0.00
2012-2-24,60.0,51.0,37.8,34.0,24.7,17.0,66,37,19,30.40,29.84,24,8,32,0.00
2012-2-25,63.7,45.9,28.5,36.0,24.7,12.0,89,51,14,30.44,30.21,15,4,19,0.00
2012-2-26,68.2,52.8,34.7,51.0,41.9,30.0,87,68,49,30.21,30.02,16,5,21,0.00
2012-2-27,69.2,62.4,57.3,59.0,55.9,51.0,94,80,67,30.25,30.11,14,6,16,0.00
2012-2-28,79.1,69.8,61.0,66.0,63.1,58.0,96,80,61,30.11,29.86,23,8,39,0.00
2012-2-29,77.2,66.9,51.1,66.0,45.3,25.0,95,55,15,30.04,29.90,10,3,14,0.05
2012-3-1,83.2,60.9,43.2,66.0,53.2,40.0,95,77,47,29.93,29.65,12,3,17,0.00
2012-3-2,71.8,64.6,52.9,66.0,49.5,37.0,96,63,32,29.86,29.61,12,4,17,0.00
2012-3-3,63.8,52.2,39.1,38.0,30.8,22.0,75,47,22,30.21,29.86,15,5,20,0.00
2012-3-4,75.7,54.9,30.7,41.0,30.1,22.0,89,48,14,30.25,30.11,10,3,18,0.00
2012-3-5,77.0,60.0,38.4,46.0,35.5,28.0,81,45,17,30.33,30.18,16,5,25,0.00
2012-3-6,74.8,63.2,53.5,58.0,52.6,47.0,89,70,46,30.20,29.95,27,10,34,0.00
2012-3-7,70.9,67.5,64.1,65.0,61.7,57.0,87,81,76,29.95,29.84,25,8,27,0.00
2012-3-8,79.1,61.7,44.0,67.0,55.7,38.0,88,81,66,30.29,29.85,22,9,29,0.00
2012-3-9,43.8,41.3,39.3,41.0,38.9,36.0,94,90,76,30.43,30.23,21,7,24,1.05
2012-3-10,49.0,46.6,42.6,48.0,45.2,41.0,97,95,89,30.34,30.07,7,2,13,0.65
2012-3-11,70.7,57.3,49.1,57.0,51.2,46.0,97,82,44,30.07,29.94,13,3,15,0.15
2012-3-12,85.2,64.1,47.4,64.0,53.8,46.0,96,75,25,30.07,29.96,10,3,15,0.00
2012-3-13,76.7,69.8,61.9,68.0,65.0,60.0,96,85,69,30.11,29.98,12,4,21,0.00
2012-3-14,79.4,71.0,65.6,68.0,65.5,63.0,92,83,66,30.09,30.00,14,5,23,0.00
2012-3-15,77.9,70.5,65.9,67.0,65.2,63.0,94,84,67,30.13,30.01,16,6,19,0.00
2012-3-16,76.3,70.7,63.8,68.0,65.3,62.0,95,83,70,30.09,29.92,22,5,30,0.00
2012-3-17,79.4,71.7,66.0,65.0,63.9,61.0,91,77,54,30.01,29.90,18,8,22,0.00
2012-3-18,74.6,69.9,65.7,67.0,64.7,62.0,89,83,73,29.96,29.80,15,8,29,0.00
2012-3-19,79.3,72.8,55.9,67.0,65.0,55.0,95,77,60,29.83,29.54,28,11,38,1.58
2012-3-27,78.4,72.6,65.9,65.0,63.2,60.0,84,73,60,30.05,29.95,10,5,16,0.00
2012-3-28,70.7,66.2,62.3,68.0,63.6,61.0,96,91,81,30.01,29.89,10,3,13,0.30
2012-3-29,75.7,66.1,61.9,69.0,64.2,61.0,97,93,77,29.94,29.81,4,1,7,0.01
2012-3-30,85.2,74.6,63.5,71.0,66.4,62.0,97,78,52,29.85,29.70,11,4,17,0.01
2012-3-31,90.4,74.0,61.8,71.0,65.4,61.0,97,77,39,29.83,29.71,11,4,18,0.00
2012-4-1,90.7,76.5,61.1,69.0,64.7,59.0,95,70,36,29.77,29.62,12,5,20,0.00
2012-4-2,85.2,75.7,67.8,69.0,65.8,59.0,94,74,41,29.67,29.50,18,7,21,0.00
2012-4-3,82.1,72.6,58.6,71.0,61.1,39.0,94,72,23,29.81,29.60,14,4,20,0.00
2012-4-4,82.3,64.2,46.7,60.0,52.8,44.0,92,70,34,29.92,29.73,7,2,12,0.00
2012-4-5,83.8,67.5,54.3,59.0,56.3,53.0,95,71,41,29.90,29.77,9,2,11,0.00
2012-4-6,82.0,67.5,53.5,61.0,57.1,52.0,94,72,46,30.01,29.89,14,3,16,0.00
2012-4-7,83.3,71.6,61.6,66.0,62.9,58.0,96,76,53,30.16,29.98,12,3,16,0.00
2012-4-8,82.0,69.4,62.4,66.0,62.7,60.0,95,81,53,30.23,30.11,9,2,16,0.01
2012-4-9,82.9,68.5,56.0,67.0,59.9,55.0,97,77,48,30.17,30.02,9,2,14,0.01
2012-4-10,83.9,70.3,58.4,63.0,59.1,57.0,94,71,42,30.10,29.99,10,3,17,0.00
2012-4-11,83.4,70.6,57.5,65.0,60.1,56.0,96,72,44,30.10,29.94,13,4,18,0.00
2012-4-12,81.4,73.0,66.6,67.0,64.4,62.0,91,75,56,29.99,29.85,15,6,26,0.00
2012-4-13,81.7,73.5,67.5,69.0,66.5,63.0,93,79,64,29.95,29.79,15,6,22,0.00
2012-4-14,80.5,75.0,71.2,69.0,67.8,66.0,87,78,66,29.84,29.67,24,9,30,0.00
2012-4-15,77.2,68.2,57.3,70.0,57.0,46.0,90,70,36,29.91,29.57,13,4,29,0.13
2012-4-16,75.3,62.3,48.8,58.0,51.4,43.0,92,70,46,30.15,29.90,12,3,18,0.00
2012-4-17,81.5,65.6,51.0,60.0,51.8,47.0,95,66,31,30.24,30.11,8,3,13,0.00
2012-4-18,83.1,67.2,51.9,63.0,54.0,49.0,95,66,34,30.16,29.95,9,4,14,0.00
2012-4-19,86.5,70.7,55.5,59.0,53.6,49.0,81,57,32,29.98,29.71,15,4,21,0.00
2012-4-20,74.7,66.9,56.9,62.0,57.2,46.0,92,73,39,30.02,29.68,16,6,29,0.02
2012-4-21,78.5,63.1,46.4,49.0,45.5,42.0,88,57,31,30.09,29.97,11,4,17,0.00
2012-4-22,88.6,68.4,48.5,54.0,48.6,45.0,91,55,24,30.13,29.98,11,2,15,0.00
2012-4-23,76.0,63.8,51.5,47.0,44.3,40.0,71,51,30,30.25,30.04,9,3,12,0.00
2012-4-24,89.4,71.3,49.5,59.0,51.1,45.0,86,53,30,30.06,29.84,15,4,21,0.00
2012-4-25,94.0,78.5,64.8,70.0,63.5,58.0,88,63,37,29.87,29.71,19,7,25,0.00
2012-4-26,95.2,80.6,67.0,69.0,64.8,58.0,87,62,31,29.79,29.70,14,6,23,0.00
2012-4-27,91.1,78.7,68.5,68.0,61.7,57.0,82,59,33,29.80,29.68,16,7,26,0.00
2012-4-28,90.1,77.8,68.0,67.0,63.8,58.0,83,64,42,29.82,29.71,19,8,27,0.00
2012-4-29,87.2,77.9,71.0,67.0,64.4,60.0,85,65,43,29.91,29.79,18,7,26,0.00
2012-4-30,86.4,77.4,70.9,70.0,67.8,66.0,90,73,53,29.95,29.83,14,6,22,0.00
2012-5-1,87.0,77.9,71.1,70.0,67.3,64.0,87,71,47,29.90,29.75,19,7,21,0.00
2012-5-2,85.6,76.6,70.9,69.0,66.7,65.0,84,72,55,29.88,29.78,15,5,22,0.00
2012-5-3,93.2,80.0,66.9,71.0,68.2,65.0,94,69,43,29.92,29.78,15,5,18,0.00
2012-5-4,94.6,82.7,71.5,71.0,68.7,58.0,86,64,43,29.95,29.77,15,5,21,0.00
2012-5-5,97.2,83.1,70.3,72.0,68.7,58.0,87,64,39,29.90,29.69,17,7,24,0.00
2012-5-6,93.8,82.1,72.5,69.0,62.9,52.0,72,53,36,29.84,29.69,14,6,28,0.05
2012-5-7,91.7,77.3,64.9,72.0,66.8,46.0,94,73,26,29.96,29.73,20,4,21,0.23
2012-5-8,67.2,65.1,62.7,66.0,63.5,61.0,95,94,92,30.00,29.86,10,2,15,0.26
2012-5-9,79.6,68.0,59.6,65.0,61.1,58.0,96,80,54,30.06,29.91,9,2,12,0.01
2012-5-10,72.7,66.4,60.2,68.0,61.3,56.0,95,84,69,29.94,29.75,15,5,19,0.43
2012-5-11,80.2,69.7,62.3,68.0,62.7,60.0,96,80,53,29.96,29.76,7,2,11,0.00
2012-5-12,77.7,68.8,60.4,63.0,60.5,59.0,95,77,53,30.14,29.96,12,4,21,0.00
2012-5-13,82.4,70.2,58.7,62.0,58.6,56.0,95,70,42,30.19,30.05,10,2,12,0.00
2012-5-14,84.0,69.5,59.4,65.0,60.4,57.0,92,74,45,30.09,29.96,9,2,13,0.00
2012-5-15,75.7,67.1,60.7,64.0,61.3,58.0,95,83,58,30.10,29.99,10,2,13,0.16
2012-5-16,86.8,71.3,56.4,64.0,56.5,48.0,96,66,27,30.09,29.95,9,2,13,0.01
2012-5-17,89.6,75.0,57.9,65.0,57.3,51.0,94,59,28,30.01,29.86,9,2,11,0.00
2012-5-18,88.1,76.7,62.6,65.0,60.4,58.0,89,60,39,29.92,29.79,14,6,22,0.00
2012-5-19,88.8,78.4,69.8,67.0,64.6,62.0,86,65,43,29.93,29.82,18,7,23,0.00
2012-5-20,88.2,77.1,64.7,69.0,63.4,58.0,94,65,40,30.08,29.93,10,4,17,0.00
2012-5-21,90.8,76.3,61.4,65.0,60.6,58.0,91,62,33,30.13,29.99,8,1,8,0.00
2012-5-22,92.3,78.1,63.4,67.0,62.6,58.0,90,62,32,30.01,29.77,12,2,14,0.00
2012-5-23,92.3,79.6,66.4,70.0,65.0,57.0,83,63,45,29.79,29.55,16,6,24,0.00
2012-5-24,93.7,81.5,73.5,74.0,69.7,67.0,82,69,49,29.68,29.55,16,8,22,0.00
2012-5-25,94.2,82.4,72.2,72.0,69.9,68.0,87,68,45,29.89,29.68,20,8,24,0.00
2012-5-26,92.8,82.7,74.6,71.0,67.7,61.0,84,63,36,29.96,29.84,17,8,27,0.00
2012-5-27,90.6,80.5,70.4,69.0,66.3,64.0,89,64,43,29.93,29.79,16,6,20,0.00
2012-5-28,95.7,83.4,71.6,70.0,67.4,63.0,88,61,40,29.89,29.73,10,5,20,0.00
2012-5-29,97.2,85.3,72.5,72.0,69.3,64.0,87,60,41,29.89,29.75,13,5,18,0.00
2012-5-30,91.8,82.1,73.2,72.0,68.3,56.0,86,65,33,29.87,29.58,21,6,30,0.00
2012-5-31,89.5,79.5,71.0,71.0,64.8,57.0,89,63,34,29.90,29.65,17,5,32,0.00
2012-6-1,93.3,79.0,64.3,63.0,56.0,47.0,82,50,25,30.01,29.80,11,4,14,0.00
2012-6-2,96.5,83.6,71.2,69.0,64.6,54.0,86,55,30,29.90,29.75,13,5,20,0.00
2012-6-3,95.2,82.8,72.1,73.0,69.2,66.0,89,66,38,29.87,29.77,17,6,22,0.00
2012-6-4,93.3,82.0,73.0,72.0,69.9,68.0,87,68,47,29.86,29.72,11,4,18,0.00
2012-6-5,98.8,85.0,71.4,70.0,66.5,63.0,88,57,31,29.82,29.66,9,3,13,0.00
2012-6-6,98.1,85.4,71.6,72.0,66.5,64.0,82,56,35,29.79,29.67,11,3,19,0.00
2012-6-7,79.8,72.6,67.0,72.0,67.5,64.0,94,84,69,29.94,29.81,19,4,24,0.63
2012-6-8,83.1,74.4,68.9,70.0,68.4,67.0,94,82,63,29.95,29.82,8,2,12,0.01
2012-6-9,94.2,80.8,66.7,73.0,67.2,64.0,95,67,37,29.85,29.66,10,3,15,0.00
2012-6-10,97.7,84.9,69.7,75.0,70.7,65.0,87,64,45,29.74,29.67,11,6,21,0.00
2012-6-11,100.8,87.2,76.5,74.0,71.0,62.0,88,61,33,29.92,29.72,15,6,24,0.00
2012-6-12,93.1,80.8,70.4,75.0,69.6,63.0,85,70,52,30.02,29.87,15,4,38,0.00
2012-6-13,96.1,80.2,66.9,72.0,67.9,63.0,87,68,43,30.06,29.79,12,5,19,0.00
2012-6-14,96.5,85.4,74.9,73.0,70.4,67.0,86,63,41,29.88,29.77,14,6,19,0.00
2012-6-15,96.0,84.9,73.8,73.0,69.2,64.0,88,62,39,29.93,29.81,18,6,22,0.00
2012-6-16,97.1,84.7,71.6,73.0,68.3,63.0,92,61,35,29.99,29.85,13,6,19,0.00
2012-6-17,94.3,81.8,71.5,73.0,69.1,66.0,91,68,42,30.00,29.80,11,4,18,0.04
2012-6-18,95.7,83.2,72.2,72.0,67.4,65.0,87,62,37,29.81,29.69,14,6,23,0.00
2012-6-19,95.6,83.0,75.1,72.0,69.8,66.0,84,66,39,29.84,29.75,25,8,29,0.00
2012-6-20,86.2,76.9,69.9,76.0,72.1,68.0,95,85,62,29.92,29.82,15,6,31,1.15
2012-6-21,92.2,81.0,71.9,75.0,70.5,66.0,97,73,43,30.01,29.87,8,3,12,0.01
2012-6-22,95.1,81.7,68.0,70.0,66.5,63.0,94,63,36,29.95,29.81,9,2,12,0.00
2012-6-23,96.2,83.8,70.8,72.0,65.3,57.0,90,58,28,29.87,29.80,9,3,15,0.00
2012-6-24,98.2,84.6,69.1,73.0,66.1,63.0,85,57,32,29.94,29.83,8,1,11,0.00
2012-6-25,101.9,86.7,70.4,72.0,65.1,59.0,85,53,25,29.90,29.75,7,1,12,0.00
2012-6-26,105.5,92.7,70.5,69.0,64.7,60.0,81,43,24,29.80,29.67,6,2,10,0.00
2012-6-27,103.6,90.3,75.5,72.0,67.0,64.0,78,49,28,29.86,29.73,12,3,16,0.00
2012-6-28,99.4,88.5,74.2,69.0,64.0,59.0,76,46,28,29.98,29.87,11,4,15,0.00
2012-6-29,97.4,86.2,74.3,73.0,67.9,62.0,80,56,31,29.96,29.81,16,5,25,0.00
2012-6-30,96.3,83.4,72.4,73.0,69.4,66.0,91,65,40,29.86,29.76,17,5,22,0.00
2012-7-1,87.6,79.5,71.6,73.0,70.2,69.0,95,75,54,29.97,29.84,16,5,21,0.16
2012-7-2,96.5,84.3,73.6,75.0,68.8,60.0,93,64,37,30.03,29.90,16,6,25,0.00
2012-7-3,97.5,84.3,72.6,74.0,68.0,62.0,90,61,35,30.02,29.83,14,5,20,0.00
2012-7-4,98.7,86.6,75.4,73.0,68.2,62.0,87,57,32,29.97,29.84,16,6,21,0.00
2012-7-5,99.8,86.9,74.9,72.0,67.5,60.0,87,56,28,29.98,29.87,14,6,22,0.00
2012-7-6,100.2,86.7,72.3,73.0,65.6,59.0,89,54,26,30.01,29.86,12,3,16,0.00
2012-7-7,99.8,85.2,74.6,74.0,68.2,61.0,83,59,33,30.00,29.87,21,3,37,0.02
2012-7-8,97.6,80.1,73.7,73.0,70.7,68.0,89,74,40,29.98,29.89,10,2,23,0.00
2012-7-9,95.4,79.0,72.3,75.0,72.1,68.0,95,82,48,29.96,29.81,8,2,18,1.67
2012-7-10,91.0,79.5,71.2,76.0,72.6,70.0,97,81,56,29.91,29.80,9,2,16,0.19
2012-7-11,91.8,77.8,72.1,76.0,73.4,71.0,96,87,56,29.93,29.84,22,3,23,0.42
2012-7-12,92.9,79.6,70.5,75.0,72.1,69.0,97,80,51,29.92,29.84,7,1,15,0.01
2012-7-13,95.4,82.9,71.9,75.0,72.0,70.0,95,72,45,29.95,29.85,15,3,15,0.00
2012-7-14,95.5,83.3,71.2,76.0,70.8,67.0,95,69,43,29.97,29.85,14,3,17,0.00
2012-7-15,94.5,77.9,70.2,73.0,70.1,68.0,95,79,46,29.98,29.89,11,3,17,0.17
2012-7-16,93.9,80.5,68.3,75.0,70.1,67.0,96,74,45,29.98,29.85,13,3,17,0.01
2012-7-17,91.6,81.6,71.4,75.0,72.0,69.0,94,74,51,29.95,29.85,12,4,17,0.00
2012-7-18,95.1,83.2,72.5,76.0,71.4,63.0,96,70,43,29.99,29.89,10,3,14,0.00
2012-7-19,97.3,85.3,71.5,74.0,70.5,67.0,94,65,39,30.07,29.94,12,3,16,0.00
2012-7-20,100.1,87.8,74.2,74.0,69.3,63.0,89,58,32,30.05,29.89,8,3,13,0.00
2012-7-21,103.0,89.2,74.7,74.0,67.9,64.0,82,52,31,29.97,29.81,8,2,13,0.00
2012-7-22,99.4,86.0,77.6,75.0,70.2,64.0,78,61,38,29.99,29.86,12,4,16,0.00
2012-7-23,98.1,85.3,72.6,74.0,69.4,65.0,93,62,36,30.04,29.94,15,5,21,0.00
2012-7-24,98.5,85.2,74.0,75.0,70.2,66.0,90,64,37,30.03,29.86,16,5,20,0.00
2012-7-25,99.4,87.9,75.7,74.0,70.3,67.0,86,59,36,29.92,29.77,16,6,23,0.00
2012-7-26,99.6,86.9,75.3,74.0,71.2,68.0,85,62,38,29.89,29.77,14,6,19,0.00
2012-7-27,99.1,87.0,74.7,74.0,70.4,66.0,88,60,39,29.99,29.89,12,4,18,0.00
2012-7-28,102.5,88.0,73.7,72.0,63.8,51.0,88,50,18,30.08,29.93,9,3,13,0.00
2012-7-29,103.3,88.1,71.7,72.0,64.1,58.0,82,49,23,30.04,29.89,13,3,15,0.00
2012-7-30,102.8,89.1,73.4,73.0,67.2,63.0,83,52,28,29.98,29.83,11,3,17,0.00
2012-7-31,106.0,90.4,73.7,71.0,67.2,64.0,80,50,27,29.95,29.82,11,3,16,0.00
2012-8-1,105.8,91.3,74.9,70.0,65.0,61.0,76,45,23,29.92,29.78,13,4,17,0.00
2012-8-2,106.1,90.7,71.7,68.0,63.1,57.0,71,43,20,29.84,29.73,12,4,19,0.00
2012-8-3,103.7,89.4,73.7,69.0,65.8,62.0,72,48,26,29.84,29.74,13,5,22,0.00
2012-8-4,101.6,88.2,74.2,73.0,68.4,65.0,88,55,30,29.95,29.82,15,6,21,0.00
2012-8-5,101.5,87.8,73.7,72.0,67.3,61.0,86,54,28,30.07,29.95,14,3,17,0.00
2012-8-6,103.0,87.9,72.5,70.0,66.5,62.0,83,53,28,30.05,29.89,14,3,21,0.00
2012-8-7,105.5,89.8,74.3,72.0,66.0,61.0,78,49,25,29.93,29.81,10,3,17,0.00
2012-8-8,103.7,84.6,76.6,76.0,70.5,66.0,87,65,30,29.95,29.85,18,2,26,0.02
2012-8-9,104.7,87.1,73.7,75.0,70.3,66.0,91,62,29,29.94,29.79,13,2,25,0.02
2012-8-10,105.6,90.1,74.3,70.0,63.7,53.0,83,47,19,29.87,29.76,9,3,17,0.00
2012-8-11,103.0,87.9,72.1,69.0,61.8,58.0,63,44,25,29.91,29.80,8,3,15,0.00
2012-8-12,104.8,89.9,75.0,70.0,66.7,64.0,71,49,28,29.90,29.79,11,4,18,0.00
2012-8-13,104.1,90.3,80.0,72.0,67.6,63.0,74,50,27,29.95,29.81,13,3,21,0.00
2012-8-14,104.6,91.6,75.8,74.0,66.6,61.0,79,47,26,29.93,29.74,13,4,22,0.00
2012-8-15,102.2,89.6,76.3,73.0,65.7,58.0,81,49,24,29.88,29.75,14,6,22,0.00
2012-8-16,103.3,88.2,73.6,72.0,66.6,62.0,87,53,26,29.95,29.82,15,5,21,0.00
2012-8-17,102.6,88.5,76.2,73.0,69.0,64.0,85,56,30,29.95,29.78,21,5,28,0.02
2012-8-18,79.2,76.6,72.5,76.0,72.1,69.0,94,86,72,29.92,29.78,6,2,11,1.21
2012-8-19,90.5,82.4,73.4,75.0,71.3,68.0,93,71,48,29.96,29.83,7,2,11,0.01
2012-8-20,95.8,81.9,71.2,72.0,65.6,60.0,94,62,33,29.96,29.82,10,2,15,0.00
2012-8-21,85.2,74.1,67.7,70.0,64.9,61.0,90,74,51,30.01,29.89,11,4,27,0.01
2012-8-22,88.5,75.0,66.2,72.0,67.7,64.0,95,80,50,30.08,29.94,5,1,10,0.06
2012-8-23,92.8,80.0,69.1,73.0,67.7,64.0,95,69,39,30.00,29.86,11,3,14,0.00
2012-8-24,94.2,83.1,71.5,74.0,70.5,65.0,95,68,46,29.91,29.74,13,5,18,0.00
2012-8-25,96.1,85.4,75.7,72.0,69.5,66.0,82,61,39,29.86,29.75,17,7,23,0.00
2012-8-26,96.7,85.1,76.8,74.0,71.8,69.0,88,66,41,29.97,29.85,17,5,18,0.00
2012-8-27,90.8,79.1,74.2,79.0,72.5,67.0,93,80,53,30.02,29.90,12,2,22,0.30
2012-8-28,94.2,81.4,71.0,76.0,71.9,69.0,95,75,47,29.94,29.80,8,3,21,0.01
2012-8-29,95.2,84.7,74.1,73.0,65.8,59.0,83,56,35,29.86,29.71,15,5,25,0.00
2012-8-30,97.8,85.2,72.8,70.0,63.2,57.0,63,49,34,29.78,29.66,13,4,20,0.00
2012-8-31,99.3,84.4,69.8,73.0,67.2,64.0,85,59,36,29.91,29.76,9,2,17,0.00
2012-9-1,98.7,86.0,73.1,75.0,70.9,67.0,94,64,36,30.02,29.89,12,5,23,0.00
2012-9-2,100.1,86.1,72.8,73.0,68.6,63.0,89,60,30,30.00,29.84,12,4,21,0.00
2012-9-3,101.4,87.1,73.1,72.0,65.6,58.0,88,53,24,29.95,29.80,12,4,20,0.00
2012-9-4,102.7,88.6,75.7,72.0,66.8,59.0,85,52,27,29.90,29.75,13,5,18,0.00
2012-9-5,102.1,86.8,71.7,72.0,64.9,58.0,86,52,27,29.86,29.73,10,4,15,0.00
2012-9-6,101.9,87.1,72.4,73.0,66.3,62.0,80,53,28,29.91,29.77,9,3,17,0.00
2012-9-7,104.5,88.1,73.0,71.0,64.3,61.0,78,49,25,29.86,29.71,10,3,14,0.00
2012-9-8,88.0,78.6,69.2,63.0,53.4,41.0,71,44,21,30.05,29.76,18,7,27,0.00
2012-9-9,91.8,74.8,55.2,51.0,43.1,32.0,73,37,12,30.15,30.00,8,2,15,0.00
2012-9-10,93.3,75.6,56.5,50.0,44.6,41.0,65,37,17,30.11,29.96,11,3,16,0.00
2012-9-11,92.4,77.2,61.3,61.0,54.4,47.0,87,50,25,30.06,29.93,10,3,15,0.00
2012-9-12,95.9,82.9,70.7,71.0,66.4,58.0,87,61,33,30.01,29.87,12,4,18,0.00
2012-9-13,90.2,76.3,66.5,74.0,70.5,65.0,96,83,52,30.12,29.95,13,3,24,2.05
2012-9-14,69.4,66.2,63.1,65.0,63.4,61.0,96,91,82,30.21,30.12,12,4,13,0.18
2012-9-15,78.5,69.6,62.6,66.0,62.9,60.0,93,80,64,30.21,30.07,5,2,10,0.00
2012-9-16,68.9,66.1,64.0,66.0,64.6,63.0,97,94,85,30.09,29.95,5,1,10,0.92
2012-9-17,74.6,66.9,65.5,68.0,65.4,65.0,97,95,76,29.96,29.87,4,0,7,0.01
2012-9-18,79.5,73.0,66.8,65.0,63.8,62.0,86,73,57,30.06,29.98,8,2,11,0.00
2012-9-19,84.4,69.4,54.8,64.0,57.9,53.0,95,70,36,30.13,30.00,7,2,10,0.00
2012-9-20,89.2,73.8,59.9,70.0,62.4,56.0,92,70,41,30.05,29.93,9,3,15,0.00
2012-9-21,89.6,73.5,59.9,66.0,57.8,50.0,92,63,26,29.99,29.90,7,2,10,0.00
2012-9-22,89.7,74.1,58.6,67.0,60.2,55.0,91,64,40,30.08,29.95,8,2,11,0.00
2012-9-23,91.3,75.8,60.5,69.0,62.2,58.0,92,66,39,30.16,30.05,8,2,11,0.00
2012-9-24,92.3,78.8,66.6,71.0,64.4,60.0,95,65,36,30.10,29.94,12,4,21,0.00
2012-9-25,90.9,79.5,68.3,70.0,65.6,61.0,93,65,37,29.98,29.84,17,7,24,0.00
2012-9-26,89.5,78.6,70.6,71.0,66.1,60.0,92,68,41,29.99,29.89,18,4,20,0.00
2012-9-27,86.0,76.2,66.7,73.0,66.9,61.0,95,74,51,30.06,29.94,10,3,14,0.00
2012-9-28,88.0,76.5,68.8,73.0,68.6,65.0,92,78,55,30.03,29.89,10,2,15,0.04
2012-9-29,72.5,69.9,66.1,71.0,68.6,65.0,97,95,93,29.93,29.70,18,5,24,1.80
2012-9-30,76.9,68.1,62.3,68.0,64.2,60.0,95,87,68,29.88,29.78,17,6,23,0.01
2012-10-1,81.0,68.7,57.6,64.0,58.0,53.0,97,72,39,29.89,29.81,11,3,17,0.01
2012-10-2,78.4,67.0,56.3,59.0,55.8,53.0,90,69,46,29.99,29.88,9,2,17,0.00
2012-10-3,83.3,67.9,53.1,61.0,57.2,52.0,96,72,44,30.01,29.91,10,3,16,0.00
2012-10-4,88.2,75.8,63.9,73.0,67.6,59.0,90,77,57,30.05,29.98,15,5,21,0.00
2012-10-5,87.9,77.1,66.8,71.0,66.1,62.0,93,71,43,30.06,29.91,14,4,19,0.00
2012-10-6,69.8,58.9,51.5,63.0,52.7,46.0,84,80,74,30.18,29.98,15,6,20,0.00
2012-10-7,56.6,51.2,48.1,46.0,41.9,38.0,87,71,59,30.28,30.17,12,6,18,0.00
2012-10-8,67.0,55.2,48.1,50.0,44.1,39.0,81,67,50,30.27,30.07,6,2,13,0.00
2012-10-9,83.1,69.2,53.4,66.0,60.2,49.0,87,74,56,30.06,29.86,16,5,25,0.00
2012-10-10,86.8,75.1,66.2,73.0,67.4,63.0,95,78,55,30.09,29.94,10,2,15,0.00
2012-10-11,85.1,77.3,69.6,75.0,71.2,68.0,95,82,66,30.09,30.00,14,5,19,0.00
2012-10-12,86.3,77.0,68.0,71.0,68.4,67.0,96,76,56,30.13,30.02,11,4,18,0.00
2012-10-13,82.1,76.9,72.8,75.0,71.6,69.0,91,84,73,30.04,29.82,15,6,23,0.00
2012-10-14,85.4,74.4,63.2,73.0,59.2,50.0,92,63,32,30.09,29.84,11,4,28,0.02
2012-10-15,79.9,65.5,52.5,56.0,52.1,49.0,90,65,35,30.12,29.98,6,1,9,0.00
2012-10-16,73.0,66.2,59.9,66.0,61.2,54.0,93,84,76,29.98,29.73,12,3,17,0.04
2012-10-17,91.8,76.4,66.7,71.0,62.2,51.0,93,66,27,29.74,29.57,11,5,19,0.00
2012-10-18,77.9,65.6,52.6,52.0,40.2,31.0,65,43,18,30.00,29.75,15,3,16,0.00
2012-10-19,81.0,61.3,41.5,48.0,40.2,35.0,87,52,20,30.06,29.90,6,2,9,0.00
2012-10-20,86.8,69.4,51.4,71.0,58.3,40.0,84,68,54,29.92,29.74,17,4,24,0.00
2012-10-21,90.0,79.7,72.2,72.0,69.2,65.0,88,72,49,29.87,29.78,19,7,24,0.00
2012-10-22,88.3,78.1,71.3,71.0,68.6,64.0,91,74,46,29.95,29.84,14,6,22,0.00
2012-10-23,80.7,75.1,69.6,71.0,68.8,66.0,89,81,69,29.93,29.86,12,4,18,0.00
2012-10-24,85.7,74.9,67.9,68.0,65.6,63.0,92,74,50,29.95,29.81,15,5,19,0.00
2012-10-25,86.3,73.2,60.0,69.0,62.2,45.0,89,70,46,30.02,29.77,16,6,23,0.00
2012-10-26,59.7,53.7,47.3,45.0,40.3,33.0,80,61,51,30.30,30.02,20,8,23,0.04
2012-10-27,60.4,51.1,42.0,35.0,30.9,28.0,65,48,30,30.35,30.16,13,5,16,0.00
2012-10-28,63.9,48.7,33.5,34.0,30.6,28.0,85,54,26,30.32,30.18,8,1,13,0.00
2012-10-29,69.2,51.6,33.5,38.0,34.6,30.0,89,57,28,30.32,30.13,9,2,11,0.00
2012-10-30,76.2,57.7,38.3,52.0,44.1,34.0,86,63,39,30.14,29.96,8,2,13,0.00
2012-10-31,84.5,65.1,47.8,60.0,51.0,46.0,94,66,29,30.06,29.94,8,1,13,0.00
2012-11-1,87.4,67.5,48.1,62.0,49.9,45.0,89,59,23,30.06,29.93,10,2,15,0.00
2012-11-2,85.6,69.4,54.9,64.0,55.5,49.0,95,65,34,30.00,29.88,13,3,16,0.00
2012-11-3,82.9,69.0,60.5,67.0,61.3,57.0,96,78,50,30.06,29.95,11,2,19,0.03
2012-11-4,77.9,64.4,55.1,60.0,56.1,51.0,95,76,46,30.13,30.02,6,2,13,0.00
2012-11-5,83.5,65.5,50.0,63.0,50.7,39.0,92,63,37,30.09,29.95,16,4,18,0.00
2012-11-6,78.9,59.6,42.7,45.0,41.5,38.0,84,55,27,30.18,30.04,7,1,11,0.00
2012-11-7,80.8,62.0,45.4,46.0,42.2,36.0,84,53,22,30.19,30.04,9,3,21,0.00
2012-11-8,83.1,67.1,50.5,61.0,51.5,45.0,89,61,34,30.09,29.96,19,5,24,0.00
2012-11-9,83.1,73.1,65.3,63.0,60.3,56.0,88,66,41,30.02,29.90,22,8,27,0.00
2012-11-10,81.2,72.2,64.0,64.0,61.7,58.0,91,71,47,29.98,29.80,23,9,30,0.00
2012-11-11,79.9,70.2,56.2,66.0,51.6,23.0,79,55,25,30.21,29.77,21,7,30,0.00
2012-11-12,59.5,47.2,35.7,42.0,27.6,22.0,74,50,25,30.52,30.21,12,4,17,0.00
2012-11-13,58.3,44.1,29.2,31.0,25.6,22.0,78,52,28,30.53,30.34,12,2,15,0.00
2012-11-14,63.0,46.3,29.9,33.0,27.1,20.0,84,52,19,30.46,30.29,5,1,8,0.00
2012-11-15,66.2,50.8,32.0,42.0,34.8,26.0,79,56,38,30.33,30.21,9,2,13,0.00
2012-11-16,66.3,51.1,39.9,39.0,33.9,28.0,83,56,27,30.40,30.30,12,2,14,0.00
2012-11-17,67.7,48.4,31.1,36.0,30.7,26.0,83,55,24,30.41,30.28,10,2,12,0.00
2012-11-18,71.8,56.8,41.9,47.0,40.8,32.0,78,58,34,30.30,30.17,14,3,15,0.00
2012-11-19,73.3,61.1,49.8,58.0,53.6,47.0,94,77,58,30.25,30.11,13,3,16,0.00
2012-11-20,81.4,64.3,48.8,62.0,52.5,45.0,96,71,30,30.20,30.09,9,2,15,0.00
2012-11-21,80.7,63.9,49.9,61.0,52.0,47.0,92,68,40,30.25,30.11,9,2,14,0.00
2012-11-22,76.5,65.0,52.3,59.0,55.1,50.0,94,71,52,30.13,30.01,16,5,23,0.00
2012-11-23,64.9,59.2,52.0,55.0,41.4,24.0,95,58,26,30.40,30.09,16,5,26,0.00
2012-11-24,63.5,49.5,34.5,27.0,24.1,21.0,67,39,20,30.43,30.13,7,3,10,0.00
2012-11-25,78.4,60.0,40.2,57.0,43.0,24.0,83,55,41,30.13,29.88,15,5,24,0.00
2012-11-26,84.8,65.3,51.6,62.0,51.6,37.0,96,66,31,30.24,29.87,15,4,24,0.00
2012-11-27,56.0,47.8,35.5,43.0,35.3,28.0,91,63,51,30.41,30.24,13,4,22,0.00
2012-11-28,67.5,47.0,29.6,46.0,37.9,28.0,94,74,43,30.46,30.29,9,3,15,0.00
2012-11-29,70.6,55.2,34.4,54.0,46.4,32.0,94,74,53,30.29,30.11,11,3,16,0.00
2012-11-30,78.2,65.7,55.4,62.0,58.3,52.0,91,78,54,30.14,29.99,13,5,18,0.00
2012-12-1,80.5,69.3,56.6,66.0,62.1,54.0,96,79,55,30.07,29.96,15,5,21,0.00
2012-12-2,81.7,72.2,64.2,66.0,63.7,60.0,87,76,54,30.10,29.99,13,6,21,0.00
2012-12-3,75.8,68.1,62.0,65.0,62.0,60.0,93,81,67,30.02,29.92,17,6,23,0.00
2012-12-4,73.3,61.4,49.9,60.0,48.9,33.0,96,67,43,30.24,30.00,11,4,17,0.00
2012-12-5,70.3,54.1,39.3,44.0,34.2,27.0,75,49,25,30.28,30.04,7,2,8,0.00
2012-12-6,76.4,58.6,40.6,54.0,47.3,37.0,95,70,39,30.04,29.80,13,4,20,0.00
2012-12-7,72.2,58.9,49.6,62.0,54.7,48.0,95,86,68,29.90,29.78,9,1,12,0.01
2012-12-8,78.8,64.0,53.4,65.0,58.5,52.0,95,83,58,29.90,29.76,10,2,14,0.00
2012-12-9,80.3,65.2,49.7,67.0,56.4,36.0,95,75,46,29.98,29.75,17,6,24,0.00
2012-12-10,49.0,39.6,27.4,34.0,18.0,14.0,65,43,30,30.19,29.99,20,7,28,0.00
2012-12-11,52.4,35.0,19.9,22.0,16.7,13.0,81,52,23,30.27,30.13,7,2,10,0.00
2012-12-12,61.3,40.7,21.2,25.0,20.0,14.0,75,48,23,30.36,30.21,8,3,14,0.00
2012-12-13,66.9,49.0,29.8,47.0,33.9,23.0,79,58,44,30.31,30.16,11,4,19,0.00
2012-12-14,67.5,59.6,54.6,64.0,52.2,36.0,95,78,46,30.17,29.84,12,4,21,0.01
2012-12-15,73.4,62.1,56.7,64.0,51.4,41.0,96,71,33,29.96,29.83,6,2,11,0.08
2012-12-16,71.0,60.5,48.7,50.0,43.8,36.0,76,56,30,29.84,29.73,9,3,15,0.00
2012-12-17,68.9,55.5,40.7,36.0,29.8,24.0,68,40,19,29.96,29.84,18,6,21,0.00
2012-12-18,83.9,60.5,37.2,56.0,35.0,27.0,78,44,13,29.90,29.75,12,4,17,0.00
2012-12-19,80.7,71.2,62.2,64.0,59.3,16.0,91,70,15,29.88,29.56,20,8,37,0.00
2012-12-20,63.1,44.6,29.0,23.0,10.4,-3.0,48,28,10,30.48,29.89,26,8,33,0.00
2012-12-21,65.0,42.1,21.5,16.0,11.0,6.0,61,33,11,30.54,30.36,9,3,13,0.00
2012-12-22,67.1,52.3,32.7,51.0,34.5,12.0,76,52,28,30.37,30.07,19,6,28,0.00
2012-12-23,75.0,61.9,53.2,58.0,51.9,46.0,95,72,45,30.06,29.86,12,3,17,0.00
2012-12-24,64.9,51.2,36.5,49.0,30.2,24.0,83,49,21,30.04,29.76,9,3,12,0.00
2012-12-25,55.3,42.4,28.4,47.0,31.5,20.0,91,67,44,30.20,29.56,27,8,42,0.04
2012-12-26,38.4,29.5,22.4,23.0,20.0,15.0,82,68,54,30.34,30.16,13,5,21,0.00
2012-12-27,47.2,35.6,21.8,42.0,31.1,19.0,95,84,57,30.15,29.86,9,3,14,0.01
2012-12-28,53.1,41.2,27.5,46.0,37.1,24.0,96,86,70,30.27,29.85,16,5,24,0.02
2012-12-29,51.4,35.1,23.3,29.0,23.2,20.0,90,66,31,30.49,30.28,8,2,10,0.00
2012-12-30,45.1,37.6,23.8,32.0,25.6,20.0,85,63,42,30.48,30.20,11,4,15,0.01
2012-12-31,53.3,47.9,41.5,52.0,46.1,33.0,97,93,67,30.21,29.96,16,2,20,0.07
2013-1-1,52.3,45.2,35.0,52.0,41.0,29.0,97,86,64,30.29,29.99,12,5,19,0.08